When you browse on this site, cookies collect data to enhance your experience and personalize the content and advertising you see.
Visit our Privacy Policy to learn more. By continuing to use the site, you agree to this use of cookies and data.
  • In Latvia
  • List of Countries
  • For 7 days
  • Water Temperature
  • Weather Map
  • Weather Widgets
  • user-avatar
    Login

    Hourly Weather Naftalan

    Today, 16 September, Monday

    Time Temperature Precipitation Wind Pressure Humidity
    00:00 +22°C° 0 mm 3 mps 766 mmHg 74%
    01:00 +23°C° 0.3 mm 2 mps 766 mmHg 76%
    02:00 +23°C° 0.3 mm 1 mps 766 mmHg 78%
    03:00 +23°C° 0.3 mm 1 mps 766 mmHg 80%
    04:00 +23°C° 0.3 mm 1 mps 766 mmHg 81%
    05:00 +23°C° 0.3 mm 1 mps 767 mmHg 81%
    06:00 +23°C° 0.3 mm 1 mps 767 mmHg 82%
    07:00 +24°C° 0.1 mm 2 mps 767 mmHg 76%
    08:00 +25°C° 0.1 mm 3 mps 767 mmHg 70%
    09:00 +26°C° 0.1 mm 4 mps 767 mmHg 64%
    10:00 +27°C° 0 mm 4 mps 766 mmHg 61%
    11:00 +27°C° 0 mm 5 mps 765 mmHg 58%
    12:00 +28°C° 0 mm 5 mps 764 mmHg 55%
    13:00 +28°C° 0 mm 5 mps 764 mmHg 55%
    14:00 +27°C° 0 mm 6 mps 763 mmHg 56%
    15:00 +27°C° 0 mm 6 mps 762 mmHg 56%
    16:00 +26°C° 0 mm 5 mps 762 mmHg 59%
    17:00 +26°C° 0 mm 4 mps 762 mmHg 62%
    18:00 +25°C° 0 mm 4 mps 761 mmHg 64%
    19:00 +25°C° 0 mm 4 mps 762 mmHg 67%
    20:00 +24°C° 0 mm 3 mps 762 mmHg 69%
    21:00 +24°C° 0 mm 3 mps 762 mmHg 71%
    22:00 +24°C° 0 mm 3 mps 762 mmHg 73%
    23:00 +23°C° 0 mm 2 mps 761 mmHg 75%

    Tomorrow, 17 September, Tuesday

    Time Temperature Precipitation Wind Pressure Humidity
    00:00 +23°C° 0 mm 2 mps 761 mmHg 76%
    01:00 +23°C° 0 mm 2 mps 760 mmHg 79%
    02:00 +21°C° 0 mm 2 mps 760 mmHg 81%
    03:00 +21°C° 0 mm 2 mps 760 mmHg 83%
    04:00 +21°C° 0 mm 2 mps 760 mmHg 84%
    05:00 +21°C° 0 mm 3 mps 760 mmHg 85%
    06:00 +20°C° 0 mm 3 mps 760 mmHg 86%
    07:00 +23°C° 0 mm 2 mps 760 mmHg 76%
    08:00 +25°C° 0 mm 2 mps 760 mmHg 67%
    09:00 +27°C° 0 mm 2 mps 760 mmHg 57%
    10:00 +29°C° 0 mm 2 mps 760 mmHg 53%
    11:00 +30°C° 0 mm 2 mps 759 mmHg 49%
    12:00 +31°C° 0 mm 2 mps 759 mmHg 44%
    13:00 +31°C° 0 mm 3 mps 758 mmHg 48%
    14:00 +30°C° 0 mm 4 mps 757 mmHg 52%
    15:00 +30°C° 0 mm 5 mps 757 mmHg 55%
    16:00 +28°C° 0 mm 5 mps 757 mmHg 61%
    17:00 +27°C° 0 mm 4 mps 757 mmHg 66%
    18:00 +26°C° 0 mm 4 mps 757 mmHg 71%
    19:00 +26°C° 0 mm 4 mps 757 mmHg 73%
    20:00 +25°C° 0 mm 4 mps 758 mmHg 74%
    21:00 +25°C° 0 mm 3 mps 759 mmHg 76%
    22:00 +25°C° 0 mm 3 mps 759 mmHg 75%
    23:00 +25°C° 0 mm 3 mps 759 mmHg 75%

    Day after tomorrow, 18 September, Wednesday

    Time Temperature Precipitation Wind Pressure Humidity
    00:00 +24°C° 0 mm 2 mps 760 mmHg 74%
    01:00 +24°C° 0 mm 2 mps 760 mmHg 74%
    02:00 +24°C° 0 mm 3 mps 760 mmHg 73%
    03:00 +24°C° 0 mm 3 mps 761 mmHg 72%
    04:00 +24°C° 0 mm 2 mps 761 mmHg 71%
    05:00 +24°C° 0 mm 2 mps 762 mmHg 70%
    06:00 +24°C° 0 mm 2 mps 762 mmHg 69%
    07:00 +25°C° 0 mm 2 mps 763 mmHg 62%
    08:00 +27°C° 0 mm 2 mps 763 mmHg 54%
    09:00 +29°C° 0 mm 2 mps 764 mmHg 47%
    10:00 +29°C° 0 mm 3 mps 764 mmHg 46%
    11:00 +30°C° 0 mm 4 mps 763 mmHg 45%
    12:00 +32°C° 0 mm 4 mps 763 mmHg 43%
    13:00 +30°C° 0 mm 5 mps 763 mmHg 47%
    14:00 +30°C° 0 mm 6 mps 763 mmHg 51%
    15:00 +29°C° 0 mm 7 mps 762 mmHg 55%
    16:00 +28°C° 0 mm 7 mps 762 mmHg 60%
    17:00 +27°C° 0 mm 7 mps 763 mmHg 65%
    18:00 +26°C° 0 mm 7 mps 763 mmHg 70%
    19:00 +26°C° 0 mm 7 mps 763 mmHg 71%
    20:00 +24°C° 0 mm 7 mps 763 mmHg 72%
    21:00 +24°C° 0 mm 6 mps 763 mmHg 73%
    22:00 +24°C° 0 mm 6 mps 763 mmHg 74%
    23:00 +25°C° 0 mm 5 mps 762 mmHg 75%

    19 September, Thursday

    Time Temperature Precipitation Wind Pressure Humidity
    00:00 +25°C° 0 mm 5 mps 762 mmHg 76%
    01:00 +23°C° 0 mm 4 mps 762 mmHg 76%
    02:00 +23°C° 0 mm 4 mps 761 mmHg 77%
    03:00 +23°C° 0 mm 4 mps 761 mmHg 78%
    04:00 +23°C° 0 mm 4 mps 761 mmHg 78%
    05:00 +23°C° 0 mm 4 mps 761 mmHg 78%
    06:00 +24°C° 0 mm 3 mps 761 mmHg 78%
    07:00 +25°C° 0 mm 3 mps 761 mmHg 69%
    08:00 +27°C° 0 mm 3 mps 762 mmHg 60%
    09:00 +29°C° 0 mm 2 mps 762 mmHg 51%
    10:00 +30°C° 0 mm 3 mps 762 mmHg 48%
    11:00 +31°C° 0 mm 3 mps 762 mmHg 44%
    12:00 +33°C° 0 mm 3 mps 762 mmHg 40%
    13:00 +32°C° 0 mm 5 mps 762 mmHg 45%
    14:00 +30°C° 0 mm 7 mps 762 mmHg 49%
    15:00 +29°C° 0 mm 10 mps 762 mmHg 53%
    16:00 +27°C° 0 mm 10 mps 763 mmHg 59%
    17:00 +26°C° 0 mm 9 mps 763 mmHg 64%
    18:00 +24°C° 0 mm 9 mps 764 mmHg 70%
    19:00 +24°C° 0 mm 8 mps 764 mmHg 72%
    20:00 +24°C° 0 mm 7 mps 764 mmHg 74%
    21:00 +23°C° 0 mm 6 mps 765 mmHg 77%
    22:00 +23°C° 0 mm 5 mps 765 mmHg 76%
    23:00 +23°C° 0 mm 5 mps 764 mmHg 76%

    20 September, Friday

    Time Temperature Precipitation Wind Pressure Humidity
    00:00 +23°C° 0 mm 5 mps 764 mmHg 75%
    01:00 +22°C° 0 mm 5 mps 764 mmHg 76%
    02:00 +22°C° 0 mm 4 mps 764 mmHg 76%
    03:00 +21°C° 0 mm 4 mps 764 mmHg 76%
    04:00 +21°C° 0 mm 4 mps 763 mmHg 76%
    05:00 +21°C° 0 mm 4 mps 763 mmHg 76%
    06:00 +21°C° 0 mm 4 mps 763 mmHg 76%
    07:00 +22°C° 0 mm 4 mps 763 mmHg 71%
    08:00 +23°C° 0 mm 4 mps 763 mmHg 67%
    09:00 +25°C° 0 mm 4 mps 763 mmHg 62%
    10:00 +26°C° 0 mm 4 mps 762 mmHg 60%
    11:00 +26°C° 0 mm 3 mps 762 mmHg 58%
    12:00 +27°C° 0 mm 3 mps 761 mmHg 56%
    13:00 +27°C° 0 mm 3 mps 760 mmHg 56%
    14:00 +27°C° 0 mm 3 mps 760 mmHg 57%
    15:00 +27°C° 0 mm 4 mps 759 mmHg 57%
    16:00 +26°C° 0 mm 4 mps 759 mmHg 63%
    17:00 +25°C° 0 mm 4 mps 759 mmHg 69%
    18:00 +23°C° 0 mm 4 mps 759 mmHg 75%
    19:00 +23°C° 0 mm 4 mps 759 mmHg 76%
    20:00 +22°C° 0 mm 3 mps 759 mmHg 78%
    21:00 +22°C° 0 mm 3 mps 759 mmHg 80%
    22:00 +22°C° 0 mm 3 mps 759 mmHg 81%
    23:00 +23°C° 0 mm 2 mps 759 mmHg 81%

    21 September, Saturday

    Time Temperature Precipitation Wind Pressure Humidity
    00:00 +23°C° 0 mm 2 mps 759 mmHg 82%
    01:00 +21°C° 0 mm 2 mps 758 mmHg 80%
    02:00 +21°C° 0 mm 3 mps 758 mmHg 78%
    03:00 +21°C° 0 mm 3 mps 758 mmHg 76%
    04:00 +21°C° 0 mm 2 mps 758 mmHg 75%
    05:00 +21°C° 0 mm 2 mps 758 mmHg 74%
    06:00 +21°C° 0 mm 2 mps 758 mmHg 73%
    07:00 +23°C° 0 mm 2 mps 758 mmHg 69%
    08:00 +24°C° 0 mm 2 mps 758 mmHg 65%
    09:00 +25°C° 0 mm 2 mps 758 mmHg 60%
    10:00 +26°C° 0 mm 3 mps 758 mmHg 57%
    11:00 +27°C° 0 mm 4 mps 758 mmHg 54%
    12:00 +27°C° 0 mm 5 mps 758 mmHg 51%
    13:00 +27°C° 0 mm 6 mps 758 mmHg 52%
    14:00 +27°C° 0 mm 7 mps 757 mmHg 52%
    15:00 +26°C° 0 mm 8 mps 757 mmHg 53%
    16:00 +24°C° 0 mm 8 mps 758 mmHg 55%
    17:00 +24°C° 0 mm 8 mps 758 mmHg 58%
    18:00 +23°C° 0 mm 8 mps 759 mmHg 61%
    19:00 +22°C° 0 mm 8 mps 759 mmHg 61%
    20:00 +22°C° 0 mm 8 mps 760 mmHg 60%
    21:00 +22°C° 0 mm 8 mps 761 mmHg 60%
    22:00 +21°C° 0 mm 9 mps 761 mmHg 63%
    23:00 +21°C° 0 mm 10 mps 762 mmHg 65%
    Show more